Location: Hamlin Beach State Park
(43.3614°N, 77.9586°W)
Time: 18:46:57
(UTC-04:00)

OTV 5 (USA 277) - Visible Passes

Search period start: 20 June 2018 00:00
Search period end: 30 June 2018 00:00
Orbit: 313 x 320 km, 54.5° (Epoch: 19 June)

Date Brightness Start Highest point End Pass type
(mag) Time Alt. Az. Time Alt. Az. Time Alt. Az.
20 Jun ? 02:24:33 10° NNW 02:26:51 24° NNE 02:29:09 10° E visible
20 Jun ? 03:58:44 10° WNW 04:01:11 30° SW 04:01:26 29° SW visible
20 Jun ? 21:54:01 10° WNW 21:56:03 19° NNW 21:58:06 10° NNE visible
21 Jun ? 01:05:25 10° N 01:06:35 12° NNE 01:07:44 10° NE visible
21 Jun ? 02:38:43 10° NW 02:40:25 31° NNW 02:40:25 31° NNW visible
21 Jun ? 22:09:34 10° NW 22:10:46 12° NNW 22:12:00 10° N visible
22 Jun ? 01:19:18 10° NNW 01:21:18 18° NNE 01:21:51 17° NE visible
23 Jun ? 00:00:33 10° N 00:00:57 10° NNE 00:01:20 10° NNE visible
23 Jun ? 01:33:23 10° NW 01:34:38 21° NNW 01:34:38 21° NNW visible
24 Jun ? 00:14:06 10° NNW 00:15:43 14° NNE 00:16:53 12° NE visible
24 Jun ? 01:47:40 10° NW 01:47:42 10° NW 01:47:42 10° NW visible
25 Jun ? 00:28:06 10° NNW 00:30:05 23° NNE 00:30:05 23° NNE visible
25 Jun ? 23:08:59 10° N 23:10:06 12° NNE 23:11:13 10° NE visible
26 Jun ? 00:42:16 10° NW 00:43:24 21° NW 00:43:24 21° NW visible
26 Jun ? 23:22:51 10° NNW 23:24:50 18° NNE 23:25:57 14° NE visible
27 Jun ? 00:56:41 10° WNW 00:56:47 11° WNW 00:56:47 11° WNW visible
27 Jun ? 22:04:12 10° N 22:04:28 10° NNE 22:04:44 10° NNE visible
27 Jun ? 23:36:57 10° NW 23:39:24 33° NNE 23:39:24 33° NNE visible
28 Jun ? 22:17:40 10° NNW 22:19:14 14° NNE 22:20:49 10° NE visible
28 Jun ? 23:51:13 10° NW 23:52:54 34° NW 23:52:54 34° NW visible
29 Jun ? 22:31:39 10° NNW 22:33:55 23° NNE 22:35:36 14° ENE visible
